Tracking 28081 objects as of 26-Sep-2023
HD Live streaming from Space Station
objects crossing your sky now

OPS 8068

Track OPS 8068 now!
10-day predictions
OPS 8068 is classified as:


NORAD ID: 1580
Int'l Code: 1965-072A
Perigee: 637.0 km
Apogee: 973.2 km
Inclination: 98.3 °
Period: 100.8 minutes
Semi major axis: 7176 km
RCS: 0.631 m2 (medium)
Launch date: September 10, 1965
Source: United States (US)
Launch site: AIR FORCE WESTERN TEST RANGE (AFWTR)
Your satellite tracking list
Your tracking list is empty




NASA's NSSDC Master Catalog

Two Line Element Set (TLE):
1  1580U 65072A   23269.47036711  .00000782  00000-0  24783-3 0  9999
2  1580  98.3314  88.9958 0234254 105.5766 257.1405 14.28149756 11509
Source of the keplerian elements: AFSPC